TimeMST,TemperatureF,Dew PointF,Humidity,Sea Level PressureIn,VisibilityMPH,Wind Direction,Wind SpeedMPH,Gust SpeedMPH,PrecipitationIn,Events,Conditions,WindDirDegrees,DateUTC
12:15 AM,46.4,26.6,46,30.02,10.0,Calm,Calm,-,N/A,,Mostly Cloudy,0,2013-03-04 07:15:00
1:15 AM,44.6,26.6,49,30.00,10.0,Calm,Calm,-,N/A,,Mostly Cloudy,0,2013-03-04 08:15:00
1:35 AM,44.6,26.6,49,30.00,10.0,Calm,Calm,-,N/A,,Overcast,0,2013-03-04 08:35:00
1:55 AM,42.8,28.4,57,30.00,10.0,Calm,Calm,-,N/A,,Overcast,0,2013-03-04 08:55:00
2:35 AM,44.6,28.4,53,29.99,10.0,Calm,Calm,-,N/A,,Overcast,0,2013-03-04 09:35:00
2:55 AM,48.2,21.2,34,29.98,10.0,Calm,Calm,-,N/A,,Mostly Cloudy,0,2013-03-04 09:55:00
3:15 AM,48.2,21.2,34,29.97,10.0,SW,4.6,-,N/A,,Mostly Cloudy,220,2013-03-04 10:15:00
3:35 AM,48.2,21.2,34,29.96,10.0,SW,4.6,-,N/A,,Mostly Cloudy,220,2013-03-04 10:35:00
3:55 AM,46.4,21.2,37,29.96,10.0,Calm,Calm,-,N/A,,Mostly Cloudy,0,2013-03-04 10:55:00
4:15 AM,42.8,26.6,53,29.96,10.0,NW,3.5,-,N/A,,Mostly Cloudy,310,2013-03-04 11:15:00
4:35 AM,44.6,26.6,49,29.96,10.0,Calm,Calm,-,N/A,,Overcast,0,2013-03-04 11:35:00
5:15 AM,46.4,21.2,37,29.96,10.0,Calm,Calm,-,N/A,,Mostly Cloudy,0,2013-03-04 12:15:00
5:35 AM,46.4,21.2,37,29.96,10.0,Calm,Calm,-,N/A,,Mostly Cloudy,0,2013-03-04 12:35:00
5:55 AM,46.4,21.2,37,29.96,10.0,WSW,4.6,-,N/A,,Mostly Cloudy,250,2013-03-04 12:55:00
6:15 AM,46.4,21.2,37,29.96,10.0,WSW,3.5,-,N/A,,Mostly Cloudy,250,2013-03-04 13:15:00
6:35 AM,42.8,24.8,49,29.96,10.0,Calm,Calm,-,N/A,,Mostly Cloudy,0,2013-03-04 13:35:00
6:55 AM,39.2,26.6,61,29.96,10.0,Calm,Calm,-,N/A,,Scattered Clouds,0,2013-03-04 13:55:00
7:15 AM,42.8,23.0,46,29.97,10.0,West,4.6,-,N/A,,Mostly Cloudy,260,2013-03-04 14:15:00
7:35 AM,46.4,23.0,40,29.97,10.0,WSW,4.6,-,N/A,,Mostly Cloudy,250,2013-03-04 14:35:00
7:55 AM,46.4,21.2,37,29.97,10.0,WSW,5.8,-,N/A,,Partly Cloudy,240,2013-03-04 14:55:00
8:15 AM,48.2,21.2,34,29.97,10.0,WSW,8.1,-,N/A,,Clear,250,2013-03-04 15:15:00
8:35 AM,48.2,21.2,34,29.98,10.0,West,8.1,-,N/A,,Clear,260,2013-03-04 15:35:00
8:55 AM,50.0,21.2,32,29.98,10.0,West,8.1,-,N/A,,Clear,260,2013-03-04 15:55:00
9:15 AM,51.8,23.0,33,29.98,10.0,West,6.9,-,N/A,,Clear,270,2013-03-04 16:15:00
9:35 AM,51.8,23.0,33,29.98,10.0,WNW,6.9,-,N/A,,Clear,290,2013-03-04 16:35:00
9:55 AM,51.8,23.0,33,29.98,10.0,WNW,8.1,-,N/A,,Clear,290,2013-03-04 16:55:00
10:15 AM,53.6,24.8,33,29.99,10.0,West,6.9,-,N/A,,Clear,270,2013-03-04 17:15:00
10:35 AM,53.6,24.8,33,29.99,10.0,West,10.4,16.1,N/A,,Clear,270,2013-03-04 17:35:00
10:55 AM,53.6,24.8,33,29.99,10.0,West,12.7,19.6,N/A,,Clear,270,2013-03-04 17:55:00
11:15 AM,55.4,23.0,29,30.00,10.0,WSW,13.8,17.3,N/A,,Clear,250,2013-03-04 18:15:00
11:35 AM,55.4,24.8,31,30.00,10.0,WSW,8.1,-,N/A,,Scattered Clouds,240,2013-03-04 18:35:00
11:55 AM,53.6,24.8,33,30.01,10.0,SW,6.9,-,N/A,,Partly Cloudy,220,2013-03-04 18:55:00
12:15 PM,55.4,24.8,31,30.01,10.0,WNW,11.5,16.1,N/A,,Scattered Clouds,290,2013-03-04 19:15:00
12:35 PM,55.4,26.6,33,30.00,10.0,WNW,9.2,17.3,N/A,,Mostly Cloudy,290,2013-03-04 19:35:00
12:55 PM,55.4,26.6,33,30.00,10.0,West,12.7,17.3,N/A,,Scattered Clouds,270,2013-03-04 19:55:00
1:15 PM,55.4,26.6,33,30.00,10.0,West,6.9,19.6,N/A,,Partly Cloudy,280,2013-03-04 20:15:00
1:35 PM,57.2,26.6,31,30.00,10.0,West,13.8,18.4,N/A,,Scattered Clouds,260,2013-03-04 20:35:00
1:55 PM,55.4,26.6,33,30.00,10.0,WNW,12.7,17.3,N/A,,Partly Cloudy,290,2013-03-04 20:55:00
2:15 PM,57.2,26.6,31,30.00,10.0,West,9.2,16.1,N/A,,Mostly Cloudy,270,2013-03-04 21:15:00
2:35 PM,57.2,26.6,31,30.00,10.0,NW,9.2,-,N/A,,Mostly Cloudy,310,2013-03-04 21:35:00
2:55 PM,57.2,26.6,31,30.01,10.0,West,11.5,18.4,N/A,,Scattered Clouds,280,2013-03-04 21:55:00
3:15 PM,57.2,26.6,31,30.01,10.0,West,12.7,-,N/A,,Scattered Clouds,280,2013-03-04 22:15:00
3:35 PM,57.2,26.6,31,30.01,10.0,WNW,11.5,-,N/A,,Clear,290,2013-03-04 22:35:00
3:55 PM,59.0,26.6,29,30.01,10.0,NW,13.8,-,N/A,,Clear,310,2013-03-04 22:55:00
4:15 PM,57.2,26.6,31,30.01,10.0,WSW,9.2,-,N/A,,Clear,250,2013-03-04 23:15:00
4:35 PM,57.2,26.6,31,30.02,10.0,WNW,6.9,-,N/A,,Clear,290,2013-03-04 23:35:00
4:55 PM,57.2,26.6,31,30.02,10.0,NW,4.6,-,N/A,,Clear,310,2013-03-04 23:55:00
5:15 PM,57.2,28.4,33,30.03,10.0,West,11.5,-,N/A,,Clear,270,2013-03-05 00:15:00
5:35 PM,57.2,26.6,31,30.03,10.0,WNW,8.1,-,N/A,,Clear,290,2013-03-05 00:35:00
5:55 PM,55.4,28.4,36,30.04,10.0,West,11.5,-,N/A,,Clear,270,2013-03-05 00:55:00
6:15 PM,53.6,30.2,41,30.05,10.0,West,10.4,-,N/A,,Clear,280,2013-03-05 01:15:00
6:35 PM,51.8,30.2,44,30.06,10.0,West,9.2,-,N/A,,Clear,270,2013-03-05 01:35:00
6:55 PM,51.8,30.2,44,30.07,10.0,West,10.4,-,N/A,,Clear,280,2013-03-05 01:55:00
7:15 PM,50.0,32.0,50,30.08,10.0,NW,5.8,-,N/A,,Clear,310,2013-03-05 02:15:00
7:35 PM,48.2,32.0,54,30.09,10.0,NW,5.8,-,N/A,,Clear,310,2013-03-05 02:35:00
7:55 PM,46.4,32.0,57,30.10,10.0,NW,5.8,-,N/A,,Clear,320,2013-03-05 02:55:00
8:15 PM,46.4,32.0,57,30.12,10.0,NW,5.8,-,N/A,,Clear,320,2013-03-05 03:15:00
8:35 PM,48.2,32.0,54,30.12,10.0,NW,6.9,-,N/A,,Clear,320,2013-03-05 03:35:00
8:55 PM,46.4,32.0,57,30.13,10.0,SE,5.8,-,N/A,,Partly Cloudy,140,2013-03-05 03:55:00
9:15 PM,46.4,30.2,53,30.15,10.0,Calm,Calm,-,N/A,,Clear,0,2013-03-05 04:15:00
9:35 PM,46.4,30.2,53,30.15,10.0,Calm,Calm,-,N/A,,Clear,0,2013-03-05 04:35:00
9:55 PM,44.6,30.2,57,30.16,10.0,NE,4.6,-,N/A,,Clear,40,2013-03-05 04:55:00
10:15 PM,44.6,30.2,57,30.16,10.0,NNE,5.8,-,N/A,,Clear,20,2013-03-05 05:15:00
10:35 PM,42.8,32.0,66,30.17,10.0,Calm,Calm,-,N/A,,Clear,0,2013-03-05 05:35:00
10:55 PM,41.0,32.0,70,30.18,10.0,Calm,Calm,-,N/A,,Clear,0,2013-03-05 05:55:00
11:15 PM,42.8,30.2,61,30.18,10.0,NNE,5.8,-,N/A,,Clear,20,2013-03-05 06:15:00
11:35 PM,42.8,30.2,61,30.18,10.0,Calm,Calm,-,N/A,,Clear,0,2013-03-05 06:35:00
11:55 PM,41.0,30.2,65,30.18,10.0,NW,4.6,-,N/A,,Clear,310,2013-03-05 06:55:00